Time,TemperatureF,DewpointF,PressureIn,WindDirection,WindDirectionDegrees,WindSpeedMPH,WindSpeedGustMPH,Humidity,HourlyPrecipIn,Conditions,Clouds,dailyrainin,SoftwareType,DateUTC
2013-03-06 00:02:00,36.0,22.0,30.46,North,354,0.0,5.0,57,0.00,,,0.10,,2013-03-06 06:02:00,
2013-03-06 00:11:00,36.0,22.0,30.46,North,354,0.0,5.0,57,0.00,,,0.10,,2013-03-06 06:11:00,
2013-03-06 00:22:00,35.0,22.0,30.46,NW,326,1.0,5.0,58,0.00,,,0.10,,2013-03-06 06:22:00,
2013-03-06 00:32:00,35.0,22.0,30.47,North,352,0.0,3.0,58,0.00,,,0.10,,2013-03-06 06:32:00,
2013-03-06 00:42:00,35.0,22.0,30.47,North,352,0.0,3.0,58,0.00,,,0.10,,2013-03-06 06:42:00,
2013-03-06 00:52:00,34.0,22.0,30.47,NNW,339,0.0,3.0,60,0.00,,,0.10,,2013-03-06 06:52:00,
2013-03-06 01:01:00,34.0,22.0,30.48,WNW,302,0.0,2.0,61,0.00,,,0.10,,2013-03-06 07:01:00,
2013-03-06 01:11:00,34.0,22.0,30.48,WNW,302,0.0,2.0,61,0.00,,,0.10,,2013-03-06 07:11:00,
2013-03-06 01:22:00,33.0,22.0,30.48,NNW,335,0.0,2.0,63,0.00,,,0.10,,2013-03-06 07:22:00,
2013-03-06 01:32:00,33.0,22.0,30.48,North,356,0.0,2.0,63,0.00,,,0.10,,2013-03-06 07:32:00,
2013-03-06 01:42:00,33.0,22.0,30.48,North,356,0.0,2.0,63,0.00,,,0.10,,2013-03-06 07:42:00,
2013-03-06 01:52:00,33.0,22.0,30.48,NW,323,0.0,4.0,63,0.00,,,0.10,,2013-03-06 07:52:00,
2013-03-06 02:01:00,33.0,22.0,30.48,NW,323,0.0,4.0,63,0.00,,,0.10,,2013-03-06 08:01:00,
2013-03-06 02:11:00,33.0,22.0,30.48,NW,323,0.0,4.0,63,0.00,,,0.10,,2013-03-06 08:11:00,
2013-03-06 02:21:00,32.0,21.0,30.49,NNW,343,0.0,3.0,63,0.00,,,0.10,,2013-03-06 08:21:00,
2013-03-06 02:32:00,32.0,21.0,30.49,North,356,0.0,1.0,64,0.00,,,0.03,,2013-03-06 08:32:00,
2013-03-06 02:42:00,32.0,21.0,30.49,North,356,0.0,1.0,64,0.00,,,0.03,,2013-03-06 08:42:00,
2013-03-06 02:52:00,31.0,21.0,30.49,North,6,0.0,3.0,65,0.00,,,0.03,,2013-03-06 08:52:00,
2013-03-06 03:01:00,31.0,21.0,30.49,NW,308,0.0,3.0,65,0.00,,,0.03,,2013-03-06 09:01:00,
2013-03-06 03:12:00,31.0,21.0,30.49,NW,308,0.0,3.0,65,0.00,,,0.03,,2013-03-06 09:12:00,
2013-03-06 03:21:00,30.0,20.0,30.49,NW,321,0.0,1.0,67,0.00,,,0.03,,2013-03-06 09:21:00,
2013-03-06 03:32:00,30.0,20.0,30.49,NNW,341,0.0,2.0,67,0.00,,,0.00,,2013-03-06 09:32:00,
2013-03-06 03:42:00,30.0,20.0,30.49,NNW,341,0.0,2.0,67,0.00,,,0.00,,2013-03-06 09:42:00,
2013-03-06 03:51:00,29.0,20.0,30.49,NW,323,0.0,0.0,70,0.00,,,0.00,,2013-03-06 09:51:00,
2013-03-06 04:01:00,28.0,20.0,30.49,NW,323,0.0,0.0,73,0.00,,,0.00,,2013-03-06 10:01:00,
2013-03-06 04:11:00,28.0,20.0,30.49,NW,323,0.0,0.0,73,0.00,,,0.00,,2013-03-06 10:11:00,
2013-03-06 04:21:00,28.0,20.0,30.49,NNW,345,0.0,3.0,72,0.00,,,0.00,,2013-03-06 10:21:00,
2013-03-06 04:32:00,29.0,20.0,30.50,NNW,328,0.0,2.0,68,0.00,,,0.00,,2013-03-06 10:32:00,
2013-03-06 04:42:00,29.0,20.0,30.50,NNW,328,0.0,2.0,68,0.00,,,0.00,,2013-03-06 10:42:00,
2013-03-06 04:51:00,29.0,20.0,30.50,NNW,345,0.0,3.0,68,0.00,,,0.00,,2013-03-06 10:51:00,
2013-03-06 05:02:00,29.0,20.0,30.50,North,359,0.0,4.0,68,0.00,,,0.00,,2013-03-06 11:02:00,
2013-03-06 05:11:00,29.0,20.0,30.50,North,359,0.0,4.0,68,0.00,,,0.00,,2013-03-06 11:11:00,
2013-03-06 05:22:00,28.0,19.0,30.51,NNW,348,0.0,2.0,68,0.00,,,0.00,,2013-03-06 11:22:00,
2013-03-06 05:32:00,28.0,19.0,30.51,North,356,0.0,3.0,69,0.00,,,0.00,,2013-03-06 11:32:00,
2013-03-06 05:42:00,28.0,19.0,30.51,North,356,0.0,3.0,69,0.00,,,0.00,,2013-03-06 11:42:00,
2013-03-06 05:52:00,28.0,20.0,30.51,NNW,347,0.0,4.0,70,0.00,,,0.00,,2013-03-06 11:52:00,
2013-03-06 06:02:00,27.0,19.0,30.51,North,358,0.0,1.0,71,0.00,,,0.00,,2013-03-06 12:02:00,
2013-03-06 06:11:00,27.0,19.0,30.51,North,358,0.0,1.0,71,0.00,,,0.00,,2013-03-06 12:11:00,
2013-03-06 06:21:00,27.0,19.0,30.51,North,359,0.0,1.0,72,0.00,,,0.00,,2013-03-06 12:21:00,
2013-03-06 06:32:00,27.0,19.0,30.51,North,356,0.0,1.0,72,0.00,,,0.00,,2013-03-06 12:32:00,
2013-03-06 06:42:00,27.0,19.0,30.51,North,356,0.0,1.0,72,0.00,,,0.00,,2013-03-06 12:42:00,
2013-03-06 06:52:00,26.0,19.0,30.51,North,353,0.0,1.0,73,0.00,,,0.00,,2013-03-06 12:52:00,
2013-03-06 07:02:00,26.0,19.0,30.51,NE,44,0.0,1.0,74,0.00,,,0.00,,2013-03-06 13:02:00,
2013-03-06 07:12:00,26.0,19.0,30.51,NE,44,0.0,1.0,74,0.00,,,0.00,,2013-03-06 13:12:00,
2013-03-06 07:22:00,26.0,19.0,30.52,NNW,341,0.0,2.0,74,0.00,,,0.00,,2013-03-06 13:22:00,
2013-03-06 07:32:00,26.0,19.0,30.52,NW,309,0.0,1.0,74,0.00,,,0.00,,2013-03-06 13:32:00,
2013-03-06 07:42:00,26.0,19.0,30.52,NW,309,0.0,1.0,74,0.00,,,0.00,,2013-03-06 13:42:00,
2013-03-06 07:52:00,26.0,19.0,30.53,NW,325,0.0,1.0,74,0.00,,,0.00,,2013-03-06 13:52:00,
2013-03-06 08:01:00,27.0,20.0,30.53,NNE,18,0.0,4.0,73,0.00,,,0.00,,2013-03-06 14:01:00,
2013-03-06 08:11:00,27.0,20.0,30.53,NNE,18,0.0,4.0,73,0.00,,,0.00,,2013-03-06 14:11:00,
2013-03-06 08:22:00,28.0,20.0,30.53,NE,46,1.0,3.0,70,0.00,,,0.00,,2013-03-06 14:22:00,
2013-03-06 08:32:00,29.0,19.0,30.52,NE,43,2.0,5.0,67,0.00,,,0.00,,2013-03-06 14:32:00,
2013-03-06 08:42:00,29.0,19.0,30.52,NE,43,2.0,5.0,67,0.00,,,0.00,,2013-03-06 14:42:00,
2013-03-06 08:52:00,30.0,20.0,30.52,NE,37,3.0,6.0,65,0.00,,,0.00,,2013-03-06 14:52:00,
2013-03-06 09:02:00,30.0,19.0,30.53,ENE,63,2.0,7.0,64,0.00,,,0.00,,2013-03-06 15:02:00,
2013-03-06 09:11:00,30.0,19.0,30.53,ENE,63,2.0,7.0,64,0.00,,,0.00,,2013-03-06 15:11:00,
2013-03-06 09:21:00,31.0,20.0,30.53,NE,45,3.0,6.0,62,0.00,,,0.00,,2013-03-06 15:21:00,
2013-03-06 09:32:00,32.0,20.0,30.53,NE,52,1.0,5.0,61,0.00,,,0.00,,2013-03-06 15:32:00,
2013-03-06 09:42:00,32.0,20.0,30.53,NE,52,1.0,5.0,61,0.00,,,0.00,,2013-03-06 15:42:00,
2013-03-06 09:52:00,33.0,20.0,30.54,NNE,33,0.0,4.0,59,0.00,,,0.00,,2013-03-06 15:52:00,
2013-03-06 10:01:00,34.0,20.0,30.54,NNE,22,0.0,2.0,56,0.00,,,0.00,,2013-03-06 16:01:00,
2013-03-06 10:11:00,34.0,20.0,30.54,NNE,22,0.0,2.0,56,0.00,,,0.00,,2013-03-06 16:11:00,
2013-03-06 10:21:00,34.0,19.0,30.54,NNW,337,2.0,5.0,54,0.00,,,0.00,,2013-03-06 16:21:00,
2013-03-06 10:32:00,35.0,20.0,30.54,NW,320,1.0,6.0,53,0.00,,,0.00,,2013-03-06 16:32:00,
2013-03-06 10:42:00,35.0,20.0,30.54,NW,320,1.0,6.0,53,0.00,,,0.00,,2013-03-06 16:42:00,
2013-03-06 10:52:00,36.0,21.0,30.54,East,92,0.0,4.0,53,0.00,,,0.00,,2013-03-06 16:52:00,
2013-03-06 11:01:00,38.0,22.0,30.54,WNW,293,0.0,3.0,51,0.00,,,0.00,,2013-03-06 17:01:00,
2013-03-06 11:11:00,38.0,22.0,30.54,WNW,293,0.0,3.0,51,0.00,,,0.00,,2013-03-06 17:11:00,
2013-03-06 11:21:00,39.0,19.0,30.54,WNW,282,1.0,5.0,45,0.00,,,0.00,,2013-03-06 17:21:00,
2013-03-06 11:32:00,40.0,21.0,30.53,SSW,211,0.0,2.0,47,0.00,,,0.00,,2013-03-06 17:32:00,
2013-03-06 11:42:00,40.0,21.0,30.53,SSW,211,0.0,2.0,47,0.00,,,0.00,,2013-03-06 17:42:00,
2013-03-06 11:52:00,41.0,21.0,30.53,WNW,294,1.0,4.0,44,0.00,,,0.00,,2013-03-06 17:52:00,
2013-03-06 12:02:00,42.0,20.0,30.53,West,259,2.0,4.0,41,0.00,,,0.00,,2013-03-06 18:02:00,
2013-03-06 12:28:00,42.0,21.0,30.52,SW,229,1.0,4.0,42,0.00,,,0.00,,2013-03-06 18:28:00,
2013-03-06 12:42:00,43.0,22.0,30.51,WNW,300,0.0,5.0,43,0.00,,,0.00,,2013-03-06 18:42:00,
2013-03-06 12:52:00,44.0,21.0,30.50,ENE,62,1.0,5.0,39,0.00,,,0.00,,2013-03-06 18:52:00,
2013-03-06 13:02:00,43.0,19.0,30.49,East,79,2.0,5.0,38,0.00,,,0.00,,2013-03-06 19:02:00,
2013-03-06 13:11:00,43.0,19.0,30.49,East,79,2.0,5.0,38,0.00,,,0.00,,2013-03-06 19:11:00,
2013-03-06 13:22:00,44.0,21.0,30.47,East,92,0.0,4.0,39,0.00,,,0.00,,2013-03-06 19:22:00,
2013-03-06 13:32:00,47.0,23.0,30.46,SSW,212,0.0,2.0,38,0.00,,,0.00,,2013-03-06 19:32:00,
2013-03-06 13:43:00,47.0,23.0,30.46,SSW,212,0.0,2.0,38,0.00,,,0.00,,2013-03-06 19:43:00,
2013-03-06 13:52:00,47.0,21.0,30.45,North,6,1.0,5.0,35,0.00,,,0.00,,2013-03-06 19:52:00,
2013-03-06 14:02:00,49.0,23.0,30.44,ENE,76,0.0,2.0,36,0.00,,,0.00,,2013-03-06 20:02:00,
2013-03-06 14:12:00,49.0,23.0,30.44,ENE,76,0.0,2.0,36,0.00,,,0.00,,2013-03-06 20:12:00,
2013-03-06 14:22:00,49.0,21.0,30.44,South,181,0.0,2.0,33,0.00,,,0.00,,2013-03-06 20:22:00,
2013-03-06 14:32:00,50.0,21.0,30.43,North,349,0.0,2.0,31,0.00,,,0.00,,2013-03-06 20:32:00,
2013-03-06 14:42:00,50.0,21.0,30.43,North,349,0.0,2.0,31,0.00,,,0.00,,2013-03-06 20:42:00,
2013-03-06 14:52:00,49.0,21.0,30.42,NW,304,0.0,4.0,33,0.00,,,0.00,,2013-03-06 20:52:00,
2013-03-06 15:02:00,48.0,20.0,30.42,WNW,300,0.0,1.0,32,0.00,,,0.00,,2013-03-06 21:02:00,
2013-03-06 15:11:00,48.0,20.0,30.42,WNW,300,0.0,1.0,32,0.00,,,0.00,,2013-03-06 21:11:00,
2013-03-06 15:22:00,48.0,20.0,30.42,WNW,290,0.0,3.0,33,0.00,,,0.00,,2013-03-06 21:22:00,
2013-03-06 15:32:00,47.0,19.0,30.42,ESE,105,0.0,2.0,33,0.00,,,0.00,,2013-03-06 21:32:00,
2013-03-06 15:42:00,47.0,19.0,30.42,ESE,105,0.0,2.0,33,0.00,,,0.00,,2013-03-06 21:42:00,
2013-03-06 15:51:00,48.0,21.0,30.41,SSW,198,0.0,3.0,34,0.00,,,0.00,,2013-03-06 21:51:00,
2013-03-06 16:01:00,49.0,21.0,30.41,South,169,0.0,4.0,33,0.00,,,0.00,,2013-03-06 22:01:00,
2013-03-06 16:11:00,49.0,21.0,30.41,South,169,0.0,4.0,33,0.00,,,0.00,,2013-03-06 22:11:00,
2013-03-06 16:22:00,49.0,21.0,30.40,NNW,333,0.0,3.0,33,0.00,,,0.00,,2013-03-06 22:22:00,
2013-03-06 16:32:00,49.0,20.0,30.39,West,281,1.0,4.0,32,0.00,,,0.00,,2013-03-06 22:32:00,
2013-03-06 16:41:00,49.0,20.0,30.39,West,281,1.0,4.0,32,0.00,,,0.00,,2013-03-06 22:41:00,
2013-03-06 16:51:00,49.0,20.0,30.38,NNE,20,0.0,2.0,31,0.00,,,0.00,,2013-03-06 22:51:00,
2013-03-06 17:01:00,49.0,19.0,30.37,NE,39,1.0,3.0,30,0.00,,,0.00,,2013-03-06 23:01:00,
2013-03-06 17:11:00,49.0,19.0,30.37,NE,39,1.0,3.0,30,0.00,,,0.00,,2013-03-06 23:11:00,
2013-03-06 17:21:00,49.0,19.0,30.37,NE,44,1.0,3.0,30,0.00,,,0.00,,2013-03-06 23:21:00,
2013-03-06 17:32:00,48.0,20.0,30.36,ESE,113,1.0,3.0,32,0.00,,,0.00,,2013-03-06 23:32:00,
2013-03-06 17:42:00,48.0,20.0,30.36,ESE,113,1.0,3.0,32,0.00,,,0.00,,2013-03-06 23:42:00,
2013-03-06 17:52:00,48.0,20.0,30.36,ESE,105,0.0,3.0,32,0.00,,,0.00,,2013-03-06 23:52:00,
2013-03-06 18:01:00,48.0,20.0,30.35,East,94,0.0,2.0,32,0.00,,,0.00,,2013-03-07 00:01:00,
2013-03-06 18:11:00,48.0,20.0,30.35,East,94,0.0,2.0,32,0.00,,,0.00,,2013-03-07 00:11:00,
2013-03-06 18:21:00,47.0,19.0,30.35,East,87,0.0,1.0,33,0.00,,,0.00,,2013-03-07 00:21:00,
2013-03-06 18:32:00,47.0,21.0,30.35,ESE,103,0.0,2.0,36,0.00,,,0.00,,2013-03-07 00:32:00,
2013-03-06 18:41:00,47.0,21.0,30.35,ESE,103,0.0,2.0,36,0.00,,,0.00,,2013-03-07 00:41:00,
2013-03-06 18:52:00,46.0,23.0,30.36,ESE,108,0.0,2.0,40,0.00,,,0.00,,2013-03-07 00:52:00,
2013-03-06 19:01:00,45.0,23.0,30.35,ESE,114,0.0,1.0,42,0.00,,,0.00,,2013-03-07 01:01:00,
2013-03-06 19:11:00,45.0,23.0,30.35,ESE,114,0.0,1.0,42,0.00,,,0.00,,2013-03-07 01:11:00,
2013-03-06 19:21:00,44.0,23.0,30.35,ESE,114,0.0,1.0,43,0.00,,,0.00,,2013-03-07 01:21:00,
2013-03-06 19:32:00,44.0,23.0,30.35,ESE,110,0.0,2.0,44,0.00,,,0.00,,2013-03-07 01:32:00,
2013-03-06 19:41:00,44.0,23.0,30.35,ESE,110,0.0,2.0,44,0.00,,,0.00,,2013-03-07 01:41:00,
2013-03-06 19:51:00,43.0,24.0,30.34,East,89,0.0,1.0,46,0.00,,,0.00,,2013-03-07 01:51:00,
2013-03-06 20:01:00,43.0,24.0,30.34,ESE,102,0.0,1.0,46,0.00,,,0.00,,2013-03-07 02:01:00,
2013-03-06 20:11:00,43.0,24.0,30.34,ESE,102,0.0,1.0,46,0.00,,,0.00,,2013-03-07 02:11:00,
2013-03-06 20:21:00,43.0,24.0,30.33,East,87,1.0,3.0,46,0.00,,,0.00,,2013-03-07 02:21:00,
2013-03-06 20:32:00,43.0,24.0,30.33,East,96,0.0,3.0,47,0.00,,,0.00,,2013-03-07 02:32:00,
2013-03-06 20:41:00,43.0,24.0,30.33,East,96,0.0,3.0,47,0.00,,,0.00,,2013-03-07 02:41:00,
2013-03-06 20:51:00,43.0,24.0,30.33,East,96,0.0,3.0,47,0.00,,,0.00,,2013-03-07 02:51:00,
2013-03-06 21:02:00,43.0,24.0,30.34,ENE,71,0.0,1.0,47,0.00,,,0.00,,2013-03-07 03:02:00,
2013-03-06 21:11:00,43.0,24.0,30.34,ENE,71,0.0,1.0,47,0.00,,,0.00,,2013-03-07 03:11:00,
2013-03-06 21:21:00,43.0,25.0,30.34,East,86,0.0,1.0,48,0.00,,,0.00,,2013-03-07 03:21:00,
2013-03-06 21:32:00,42.0,24.0,30.34,ESE,107,0.0,2.0,48,0.00,,,0.00,,2013-03-07 03:32:00,
2013-03-06 21:42:00,42.0,24.0,30.34,ESE,107,0.0,2.0,48,0.00,,,0.00,,2013-03-07 03:42:00,
2013-03-06 21:52:00,42.0,24.0,30.34,ENE,73,0.0,1.0,48,0.00,,,0.00,,2013-03-07 03:52:00,
2013-03-06 22:01:00,42.0,24.0,30.33,East,90,0.0,1.0,48,0.00,,,0.00,,2013-03-07 04:01:00,
2013-03-06 22:11:00,42.0,24.0,30.33,East,90,0.0,1.0,48,0.00,,,0.00,,2013-03-07 04:11:00,
2013-03-06 22:22:00,42.0,24.0,30.34,ESE,114,0.0,2.0,48,0.00,,,0.00,,2013-03-07 04:22:00,
2013-03-06 22:31:00,42.0,25.0,30.33,ENE,76,0.0,1.0,50,0.00,,,0.00,,2013-03-07 04:31:00,
2013-03-06 22:42:00,42.0,25.0,30.33,ENE,76,0.0,1.0,50,0.00,,,0.00,,2013-03-07 04:42:00,
2013-03-06 22:52:00,42.0,25.0,30.33,East,92,0.0,2.0,50,0.00,,,0.00,,2013-03-07 04:52:00,
2013-03-06 23:01:00,42.0,25.0,30.33,NE,39,0.0,1.0,51,0.00,,,0.00,,2013-03-07 05:01:00,
2013-03-06 23:12:00,42.0,25.0,30.33,NE,39,0.0,1.0,51,0.00,,,0.00,,2013-03-07 05:12:00,
2013-03-06 23:22:00,42.0,25.0,30.32,ENE,58,0.0,1.0,51,0.00,,,0.00,,2013-03-07 05:22:00,
2013-03-06 23:32:00,41.0,25.0,30.32,NE,49,0.0,2.0,52,0.00,,,0.00,,2013-03-07 05:32:00,
2013-03-06 23:42:00,41.0,25.0,30.32,NE,49,0.0,2.0,52,0.00,,,0.00,,2013-03-07 05:42:00,
2013-03-06 23:52:00,41.0,25.0,30.31,East,97,0.0,2.0,53,0.00,,,0.00,,2013-03-07 05:52:00,